[[{"header":{"parameterUnit":"m.s-1","parameterCategory":1,"la1":30.2991,"la2":30.254,"lo1":-89.0895,"lo2":-89.0444,"dy":0.0017,"dx":0.0017,"nx":28,"ny":28,"refTime":"2025-03-19T21:00:00:Z","depth":0,"parameterNumber":2,"parameterNumberName":"U-component_of_WINDS"},"data":[0,0,0,0,0,0,0,0,0,0,0,0,0,0,0,0,0,0,0,0,0,0,0,0,0,0,0,0,0,0,0,0,0,0,0,0,0,0,0,0,0,0,0,0,0,0,0,0,0,0,0,0,0,0,0,0,0,0,0.4291,0.429,0,0.4268,0.4268,0.4268,0.4319,0.4321,0.4323,0.4324,0.4298,0.4295,0.4293,0,0,0,0,0,0,0,0,0,0,0,0,0,0.4375,0.4373,0.4291,0.429,0.429,0.4268,0.4268,0.4268,0.4319,0.4321,0.4323,0.4325,0.4298,0.4296,0.4293,0,0,0,0,0,0,0,0,0,0,0,0,0,0.4344,0.4373,0.4291,0.4313,0.4315,0.4268,0.4268,0.4268,0.4319,0.4321,0.4324,0.4326,0.4299,0.4296,0.4293,0.4222,0,0,0.4282,0.4281,0,0,0,0,0,0,0,0,0.4346,0.4341,0.431,0.4312,0.4313,0.4299,0.4288,0.4252,0.4318,0.4317,0.4324,0.4327,0.4296,0.4293,0.4283,0.4221,0.422,0.4282,0.428,0.4278,0.4278,0,0,0,0,0,0,0,0.4348,0.4342,0.4282,0.431,0.4312,0.4324,0.4322,0.4282,0.4293,0.4317,0.4321,0.4318,0.4297,0.4286,0.4283,0.4219,0.4282,0.4279,0.4277,0.4276,0.4099,0.4096,0,0,0,0,0,0,0.4348,0.4344,0.4282,0.4281,0.4336,0.432,0.4318,0.4301,0.4293,0.4295,0.4316,0.432,0.4291,0.4287,0.4282,0.4199,0.4279,0.4275,0.4273,0.4102,0.4098,0.4095,0,0,0,0,0,0,0.4349,0.4342,0.4283,0.4313,0.4307,0.4316,0.4296,0.4299,0.4289,0.4292,0.4294,0.4303,0.4293,0.4287,0.4237,0.4199,0.4274,0.4271,0.4105,0.4101,0.4097,0.4032,0,0,0,0,0,0,0.4351,0.4342,0.4316,0.4312,0.4305,0.4239,0.4294,0.4297,0.4283,0.4289,0.428,0.4281,0.4294,0.4242,0.4234,0.4196,0.4268,0.4108,0.4103,0.4098,0.4038,0.4026,0.4017,0,0,0,0,0,0.4354,0.4297,0.4314,0.4306,0.4272,0.4237,0.4232,0.4249,0.428,0.4253,0.4256,0.4282,0.4205,0.4236,0.4228,0.4188,0.4111,0.4104,0.4099,0.4042,0.4029,0.4017,0,0,0,0,0,0,0.4294,0.4297,0.4316,0.4256,0.4246,0.4245,0.4212,0.4234,0.4214,0.422,0.4241,0.4239,0.4184,0.4182,0.4216,0.412,0.4163,0.4155,0.4123,0.411,0.41,0.4101,0.4265,0,0,0,0,0,0.4274,0.4245,0.425,0.4197,0.4191,0.4202,0.4187,0.4202,0.4191,0.4187,0.4186,0.4174,0.4147,0.4129,0.4104,0.4039,0.4037,0.4007,0.3997,0.3988,0.398,0.3945,0.3932,0.4076,0.4076,0.4076,0,0,0.4231,0.423,0.421,0.4184,0.4178,0.4147,0.4198,0.4163,0.414,0.4181,0.4134,0.4133,0.4121,0.4063,0.4037,0.4059,0.3941,0.398,0.3973,0.397,0.3938,0.3924,0.3912,0.4072,0.4072,0.4073,0,0,0.4138,0.4135,0.409,0.4084,0.4074,0.4083,0.4072,0.4069,0.407,0.4024,0.4054,0.4027,0.3981,0.3971,0.396,0.3866,0.3889,0.3858,0.3802,0.3768,0.3757,0.3747,0.3712,0.37,0.3851,0.385,0.385,0,0.4086,0.4042,0.4064,0.4028,0.4015,0.4053,0.4008,0.4,0.3983,0.3973,0.3998,0.3942,0.3936,0.3876,0.3854,0.3844,0.3832,0.3858,0.3757,0.3747,0.3738,0.3705,0.3693,0.3847,0.3847,0.3847,0.3848,0,0.3978,0.3947,0.3913,0.3896,0.3881,0.384,0.3855,0.3836,0.3853,0.3858,0.3811,0.3807,0.3782,0.377,0.3785,0.3712,0.3726,0.3754,0.3797,0.372,0.369,0.3678,0.3841,0.3843,0.3844,0.3845,0,0,0.3843,0.3842,0.3829,0.3822,0.3816,0.3792,0.3753,0.3731,0.3714,0.3702,0.3669,0.3631,0.3657,0.3644,0.3659,0.3629,0.3554,0.3661,0.3661,0.364,0.3474,0.3452,0.3437,0.3571,0.3569,0.3567,0.3475,0,0.3751,0.3685,0.3705,0.3638,0.361,0.3647,0.3613,0.3605,0.361,0.3586,0.3592,0.3564,0.3601,0.3594,0.3566,0.3569,0.3521,0.3577,0.3539,0.3538,0.3539,0.3421,0.3398,0.331,0.3463,0.3461,0.346,0,0.3633,0.3617,0.3548,0.3548,0.3537,0.3506,0.3488,0.3465,0.3457,0.3463,0.3451,0.3472,0.3434,0.3479,0.3426,0.3464,0.345,0.345,0.3447,0.3442,0.3492,0.3412,0.3283,0.3269,0.3441,0.3443,0.3444,0,0.354,0.3502,0.3456,0.345,0.3448,0.3426,0.3424,0.3419,0.3405,0.3389,0.338,0.3359,0.3348,0.3331,0.3346,0.3378,0.3291,0.3338,0.3294,0.3293,0.3271,0.3272,0.3137,0.3265,0.3266,0.3266,0.3266,0,0.3433,0.3389,0.3415,0.3386,0.3338,0.3362,0.3313,0.3316,0.3311,0.3283,0.3314,0.3287,0.331,0.3285,0.3297,0.3251,0.3246,0.3249,0.3252,0.3245,0.3244,0.3235,0.3241,0.3263,0.3263,0.3264,0.3265,0,0.332,0.3335,0.3288,0.3291,0.3291,0.3256,0.3258,0.3232,0.3241,0.3205,0.3198,0.321,0.3183,0.3198,0.3168,0.3177,0.3117,0.3129,0.312,0.3122,0.3077,0.308,0.2929,0.291,0.3052,0.3051,0.305,0,0.325,0.3217,0.3218,0.3202,0.3199,0.3173,0.3159,0.3182,0.3166,0.3156,0.3131,0.3107,0.3088,0.3042,0.3048,0.3027,0.3038,0.2986,0.3034,0.3028,0.3035,0.3036,0.3033,0.2976,0.2974,0.2973,0.2971,0,0.3123,0.3133,0.3113,0.3095,0.3078,0.3065,0.3055,0.304,0.3063,0.3044,0.3017,0.3003,0.2974,0.2949,0.2931,0.2929,0.2953,0.2957,0.2945,0.2937,0.2932,0.2933,0.3092,0.2959,0.2961,0.2962,0.2962,0.2963,0.3028,0.3001,0.2998,0.2975,0.297,0.296,0.2935,0.2942,0.292,0.2899,0.2915,0.2882,0.2877,0.2855,0.285,0.2825,0.2845,0.2829,0.2824,0.2819,0.2813,0.2938,0.2822,0.2822,0.2823,0.2823,0.2823,0,0.2902,0.2903,0.2881,0.2867,0.2848,0.2876,0.2866,0.2848,0.282,0.2814,0.2795,0.2765,0.2741,0.2747,0.2726,0.2705,0.2715,0.2698,0.2699,0.2698,0.2796,0.2808,0.269,0.269,0.269,0.269,0.269,0.269,0.2835,0.279,0.28,0.2754,0.2754,0.2724,0.2716,0.2707,0.2702,0.2667,0.2648,0.2653,0.2651,0.263,0.261,0.2612,0.2603,0.2581,0.2587,0.2678,0.2691,0.2703,0.2714,0.2579,0.2579,0.2491,0.249,0.2489]},{"header":{"parameterUnit":"m.s-1","parameterCategory":1,"la1":30.2991,"la2":30.254,"lo1":-89.0895,"lo2":-89.0444,"dy":0.0017,"dx":0.0017,"nx":28,"ny":28,"refTime":"2025-03-19T21:00:00:Z","depth":0,"parameterNumber":3,"parameterNumberName":"V-component_of_WINDS"},"data":[0,0,0,0,0,0,0,0,0,0,0,0,0,0,0,0,0,0,0,0,0,0,0,0,0,0,0,0,0,0,0,0,0,0,0,0,0,0,0,0,0,0,0,0,0,0,0,0,0,0,0,0,0,0,0,0,0,0,-4.6068,-4.607,0,-4.6247,-4.6249,-4.6251,-4.6191,-4.6187,-4.6183,-4.6179,-4.636,-4.6368,-4.6376,0,0,0,0,0,0,0,0,0,0,0,0,0,-4.5667,-4.5675,-4.6067,-4.607,-4.6072,-4.6247,-4.6249,-4.6252,-4.6191,-4.6187,-4.6182,-4.6177,-4.6357,-4.6367,-4.6377,0,0,0,0,0,0,0,0,0,0,0,0,0,-4.5843,-4.5678,-4.6067,-4.6063,-4.6064,-4.6247,-4.625,-4.6253,-4.6192,-4.6186,-4.6181,-4.6175,-4.6354,-4.6366,-4.6378,-4.6574,0,0,-4.6417,-4.6423,0,0,0,0,0,0,0,0,-4.5834,-4.5858,-4.6061,-4.6064,-4.6066,-4.6191,-4.6174,-4.636,-4.6194,-4.6144,-4.6179,-4.6172,-4.6308,-4.6324,-4.637,-4.6583,-4.659,-4.6418,-4.6426,-4.6431,-4.6435,0,0,0,0,0,0,0,-4.5821,-4.585,-4.6138,-4.6064,-4.6067,-4.6051,-4.6069,-4.6209,-4.6256,-4.6148,-4.6144,-4.6166,-4.6308,-4.6358,-4.6374,-4.6593,-4.6418,-4.6429,-4.6437,-4.6442,-4.6973,-4.6979,0,0,0,0,0,0,-4.5809,-4.584,-4.6133,-4.6144,-4.5933,-4.6063,-4.6083,-4.6156,-4.6255,-4.6264,-4.6171,-4.6162,-4.634,-4.636,-4.638,-4.6615,-4.6431,-4.6443,-4.645,-4.6966,-4.6974,-4.6981,0,0,0,0,0,0,-4.58,-4.5835,-4.6126,-4.5991,-4.6027,-4.6076,-4.6158,-4.6163,-4.6213,-4.6272,-4.628,-4.6214,-4.6336,-4.6362,-4.6526,-4.6621,-4.6449,-4.646,-4.6959,-4.6969,-4.6978,-4.7087,0,0,0,0,0,0,-4.5789,-4.5833,-4.5909,-4.5993,-4.6034,-4.627,-4.6164,-4.6171,-4.6236,-4.6227,-4.6315,-4.6324,-4.6333,-4.6508,-4.6539,-4.6635,-4.647,-4.695,-4.6963,-4.6975,-4.7075,-4.7099,-4.712,0,0,0,0,0,-4.5775,-4.5932,-4.5913,-4.5949,-4.6131,-4.6276,-4.6299,-4.6308,-4.6244,-4.632,-4.6357,-4.6321,-4.6605,-4.6525,-4.656,-4.6661,-4.6944,-4.696,-4.6974,-4.7065,-4.7095,-4.7119,0,0,0,0,0,0,-4.5857,-4.5943,-4.5923,-4.6113,-4.6188,-4.6265,-4.6362,-4.6339,-4.6433,-4.642,-4.6425,-4.6446,-4.6614,-4.6653,-4.6563,-4.6854,-4.6765,-4.6787,-4.6823,-4.6851,-4.6873,-4.686,-4.6481,0,0,0,0,0,-4.5897,-4.6009,-4.6078,-4.6238,-4.6277,-4.6313,-4.6377,-4.6377,-4.6454,-4.6485,-4.6535,-4.661,-4.6716,-4.6786,-4.6886,-4.708,-4.7098,-4.7167,-4.7189,-4.7207,-4.7226,-4.733,-4.7361,-4.7029,-4.7029,-4.7029,0,0,-4.5981,-4.6042,-4.6112,-4.6256,-4.6314,-4.6429,-4.634,-4.6465,-4.655,-4.6504,-4.6662,-4.67,-4.6784,-4.6964,-4.7045,-4.7002,-4.7322,-4.7226,-4.724,-4.7249,-4.7348,-4.738,-4.7408,-4.7039,-4.7037,-4.7036,0,0,-4.6192,-4.625,-4.639,-4.645,-4.6539,-4.6562,-4.6595,-4.6677,-4.6701,-4.686,-4.6827,-4.6927,-4.711,-4.7171,-4.7226,-4.7458,-4.7428,-4.7491,-4.7608,-4.7709,-4.7735,-4.7758,-4.784,-4.787,-4.751,-4.751,-4.751,0,-4.6285,-4.6458,-4.6464,-4.6592,-4.6656,-4.662,-4.676,-4.6817,-4.6935,-4.6979,-4.6929,-4.7157,-4.7211,-4.7403,-4.746,-4.7506,-4.7543,-4.7481,-4.7731,-4.7754,-4.7776,-4.7854,-4.7885,-4.7517,-4.7516,-4.7515,-4.7515,0,-4.6567,-4.6687,-4.6788,-4.6904,-4.6978,-4.7112,-4.7137,-4.7211,-4.7204,-4.7232,-4.7393,-4.7456,-4.7569,-4.7614,-4.7609,-4.7806,-4.7776,-4.7729,-4.7639,-4.7815,-4.7888,-4.7918,-4.7527,-4.7525,-4.7522,-4.7521,0,0,-4.6836,-4.6952,-4.699,-4.7041,-4.7136,-4.7228,-4.7358,-4.7469,-4.7533,-4.7614,-4.7723,-4.7878,-4.7834,-4.7896,-4.7897,-4.7986,-4.8165,-4.7927,-4.7929,-4.7969,-4.8384,-4.8419,-4.8454,-4.8145,-4.8151,-4.8155,-4.8377,0,-4.7055,-4.7287,-4.7295,-4.7506,-4.7616,-4.7582,-4.7696,-4.7765,-4.7794,-4.789,-4.7921,-4.803,-4.7965,-4.8002,-4.8089,-4.8125,-4.8248,-4.8109,-4.8245,-4.8249,-4.8225,-4.8493,-4.8531,-4.8737,-4.8406,-4.8411,-4.8414,0,-4.7342,-4.7433,-4.7655,-4.7733,-4.7779,-4.7882,-4.7983,-4.8076,-4.8153,-4.8167,-4.8237,-4.8223,-4.8355,-4.8261,-4.8441,-4.8346,-4.8402,-4.8428,-4.8436,-4.8449,-4.8343,-4.8513,-4.8803,-4.8834,-4.846,-4.8456,-4.8453,0,-4.7515,-4.7693,-4.7849,-4.7893,-4.7989,-4.8061,-4.8103,-4.8175,-4.8241,-4.8329,-4.8371,-4.8473,-4.8529,-4.8607,-4.8621,-4.8551,-4.8801,-4.8708,-4.8816,-4.8816,-4.887,-4.8867,-4.9174,-4.8907,-4.8906,-4.8906,-4.8905,0,-4.7759,-4.7896,-4.7928,-4.8024,-4.8175,-4.8183,-4.8332,-4.8369,-4.8432,-4.8533,-4.851,-4.8604,-4.8617,-4.8715,-4.8726,-4.8873,-4.8898,-4.8913,-4.8914,-4.8915,-4.8913,-4.8952,-4.8938,-4.8914,-4.8912,-4.8911,-4.8909,0,-4.7979,-4.8006,-4.8173,-4.8249,-4.8271,-4.8379,-4.8443,-4.8534,-4.8559,-4.8687,-4.8717,-4.8757,-4.8871,-4.8892,-4.9026,-4.9033,-4.9208,-4.9195,-4.9183,-4.9181,-4.9287,-4.9277,-4.963,-4.9676,-4.9379,-4.9382,-4.9384,0,-4.8133,-4.8237,-4.8324,-4.8391,-4.8437,-4.8544,-4.8611,-4.8622,-4.8692,-4.8787,-4.8866,-4.8977,-4.9066,-4.9248,-4.9288,-4.939,-4.9379,-4.9495,-4.9394,-4.9391,-4.938,-4.9373,-4.9383,-4.9515,-4.9518,-4.952,-4.9523,0,-4.8403,-4.841,-4.8508,-4.8611,-4.8692,-4.8773,-4.8849,-4.8905,-4.8925,-4.9005,-4.9121,-4.919,-4.9327,-4.9437,-4.9538,-4.9579,-4.9555,-4.9554,-4.9584,-4.9586,-4.9575,-4.9582,-4.9236,-4.9546,-4.9544,-4.9542,-4.9541,-4.954,-4.8594,-4.8685,-4.876,-4.8869,-4.8928,-4.9,-4.9089,-4.9125,-4.9223,-4.9335,-4.9335,-4.9462,-4.9534,-4.9667,-4.9715,-4.9813,-4.9776,-4.982,-4.9831,-4.9842,-4.9851,-4.9559,-4.9832,-4.9831,-4.983,-4.983,-4.9829,0,-4.8862,-4.8909,-4.9009,-4.9117,-4.9203,-4.9173,-4.9256,-4.9329,-4.9441,-4.9511,-4.96,-4.9732,-4.9838,-4.9886,-4.999,-5.0059,-5.005,-5.0086,-5.0081,-5.009,-4.9879,-4.9842,-5.0091,-5.0091,-5.0091,-5.0091,-5.0091,-5.0091,-4.9012,-4.9164,-4.918,-4.936,-4.9405,-4.953,-4.9579,-4.9645,-4.9701,-4.985,-4.9939,-4.9969,-5.003,-5.0138,-5.0233,-5.0244,-5.0283,-5.0324,-5.033,-5.0132,-5.0105,-5.008,-5.0046,-5.0333,-5.0333,-5.0533,-5.0535,-5.0536]}]]